AirNav  
 
 387 users online  

44GA S&S Flying Service Airport
Pineview, Georgia, USA

GOING TO PINEVIEW?


FAA INFORMATION EFFECTIVE 01 FEBRUARY 2018

Location

FAA Identifier: 44GA
Lat/Long: 32-06-15.6150N / 083-28-58.6060W
32-06.260250N / 083-28.976767W
32.1043375 / -83.4829461
(estimated)
Elevation: 260 ft. / 79 m (estimated)
Variation: 02W (1986)
From city: 1 mile E of PINEVIEW, GA
Time zone: UTC -5 (UTC -4 during Daylight Saving Time)
Zip code: 31071

Airport Operations

Airport use: Private use. Permission required prior to landing
Activation date: 03/1986
Control tower: no
ARTCC: JACKSONVILLE CENTER
FSS: MACON FLIGHT SERVICE STATION
Attendance: MON-SAT 0800-1700
Wind indicator: yes
Segmented circle: no

Airport Communications

WX AWOS-3PT at CKF (16 nm SW): 119.325 (229-276-2669)
WX AWOS-3 at EZM (19 nm E): 119.425 (478-374-9979)

Nearby radio navigation aids

VOR radial/distance  VOR name  Freq  Var
VNAr173/6.6VIENNA VORTAC116.5001E
MCNr166/36.2MACON VORTAC114.2001E

 
NDB name  Hdg/Dist  Freq  Var  ID
EASTMAN268/16.836604WEZM . --.. --
CONEY078/20.340006WOHY --- .... -.--
MC RAE274/30.528003WMQW -- --.- .--
MONTEZUMA125/30.942604WIZS .. --.. ...
FITZGERALD347/31.136205WSUR ... ..- .-.
LINDBERGH102/32.024204WLKG .-.. -.- --.

Airport Services

Runway Information

Runway 18/36

Dimensions: 3000 x 100 ft. / 914 x 30 m
Surface: turf
RUNWAY 18  RUNWAY 36
Traffic pattern: leftleft
Obstructions: 35 ft. trees, 10 ft. from runway35 ft. pline, 1 ft. from runway

Airport Ownership and Management from official FAA records

Ownership: Privately-owned
Owner: J.D. SCARBOROUGH
PO BOX 28
PINEVIEW, GA 31071
Phone 912-624-2703
Manager: J.D. SCARBOROUGH
PO BOX 28
PINEVIEW, GA 31071
Phone 912-624-2703

Airport Operational Statistics

Aircraft based on the field: 2
Single engine airplanes: 2
    

Instrument Procedures

There are no published instrument procedures at 44GA.

Some nearby airports with instrument procedures:

KCKF - Crisp County-Cordele Airport (16 nm SW)
KEZM - Heart of Georgia Regional Airport (19 nm E)
48A - Cochran Airport (21 nm NE)
75J - Turner County Airport (26 nm S)
KFZG - Fitzgerald Municipal Airport (27 nm SE)
 
Loc | Ops | Rwys | IFR | FBO | Links
Com | Nav | Svcs | Stats | Notes

AirNav Hotels Sweepstakes
 
Area around 44GA (S&S Flying Service Airport)
 
Road maps at: MapQuest Bing Google
 
Aerial photo
No photo
 
Sectional chart

 
Airport distance calculator
Flying to S&S Flying Service Airport? Find the distance to fly.

From to 44GA

Sunrise and sunset
Times for 24-Feb-2018
 Local
(UTC-5)
 Zulu
(UTC)
Morning civil twilight06:4311:43
Sunrise07:0812:08
Sunset18:2623:26
Evening civil twilight18:5123:51

Current date and time
Zulu (UTC)  24-Feb-2018 08:48:40
Local (UTC-5)  24-Feb-2018 03:48:40
 
METAR
KCKF 
16nm SW 
240835Z AUTO 00000KT 10SM CLR 19/17 A3024 RMK AO2 T01850165
KEZM 
19nm E 
240835Z AUTO 00000KT 1/2SM HZ BKN012 16/12 A3026 RMK AO2 T01550120
KFZG 
27nm SE 
240835Z AUTO 00000KT 4SM BR CLR 17/17 A3025 RMK AO2 T01660166
KPXE 
28nm NW 
240835Z AUTO 15005KT 10SM CLR 14/14 A3022 RMK AO2 T01440140
KWRB 
31nm N 
240756Z 13004KT 10SM CLR 16/15 A3023 RMK AO2A SLP238 T01620154
TAF
KWRB 
31nm N 
240510Z 2405/2511 18009KT 9999 FEW010 SCT025 QNH3024INS BECMG 2407/2408 19009KT 6000 BR SCT010 QNH3025INS BECMG 2409/2410 19006KT 0800 FG OVC003 QNH3021INS TEMPO 2414/2416 3200 BR BECMG 2415/2416 20009KT 9999 NSW SCT005 SCT030 QNH3018INS BECMG 2417/2418 21010G15KT 9999 SCT030 QNH3014INS BECMG 2423/2424 18006KT 9999 FEW015 SCT030 QNH3013INS BECMG 2507/2508 18009KT 6000 BR SCT010 QNH3012INS TX27/2420Z TN12/2412Z
KMCN 
36nm N 
240540Z 2406/2506 14005KT P6SM SCT060 FM240900 16003KT P6SM BKN030 FM241100 16003KT P6SM BKN009 FM241400 17004KT P6SM BKN015 FM241800 20008KT P6SM BKN040 FM250000 17003KT P6SM BKN100
NOTAMs
Click for the latest NOTAMs
NOTAMs are issued by the DoD/FAA and will open in a separate window not controlled by AirNav.

 

 
 

Would you like to see your business listed on this page?

 If your business provides an interesting product or service to pilots, flight crews, aircraft, or users of the S&S Flying Service Airport, you should consider listing it here.  To start the listing process, click on the button below
 
Add a business
 

Other Pages about S&S Flying Service Airport

Update a link
 
Copyright © AirNav, LLC. All rights reserved. Privacy Policy  Contact